Regional Weather Roundup
Issued by NWS

Home | Current Version | Previous Version | Graphics & Text | Print | Product List | Glossary On
Versions: 1 2 3 4 5 6 7 8 9 10 11 12 13 14 15 16 17 18 19 20 21 22 23 24 25 26 27 28 29 30 31 32 33 34 35 36 37 38 39 40 41 42 43 44 45 46 47 48 49 50
000
ASUS43 KDTX 280310
RWRMI
MICHIGAN HOURLY REGIONAL WEATHER ROUNDUP
NATIONAL WEATHER SERVICE DETROIT/PONTIAC MI
1000 PM EST SAT DEC 27 2014

NOTE: "FAIR" INDICATES FEW OR NO CLOUDS BELOW 12,000 FEET WITH NO
SIGNIFICANT WEATHER AND/OR OBSTRUCTION TO VISIBILITY.

MIZ047>049-052>055-059>063-066>070-074>076-081>083-280400-
SOUTHEAST LOWER MICHIGAN

CITY           SKY/WX    TMP DP  RH WIND       PRES   REMARKS
ADRIAN         LGT RAIN  38  33  82 W12       30.01S WCI  30
ALMA           CLOUDY    36  31  83 W9G16     29.97R WCI  29
ANN ARBOR      CLOUDY    38  33  82 W18G25    29.99R WCI  28
BAD AXE        CLOUDY    38  35  88 W17       29.92R WCI  28
CARO           CLOUDY    37  34  86 W13G20    29.94R WCI  29
DETROIT CITY   LGT RAIN  42  33  70 W14G22    29.98R
DETROIT        LGT RAIN  40  34  79 W14       29.99R WCI  32
FLINT          CLOUDY    39  31  72 W13G24    29.99R WCI  31
GROSSE ILE     LGT RAIN  45  34  65 W13G20    29.98R
HILLSDALE      CLOUDY    36  34  92 W14G20    29.99F WCI  27
HOWELL         CLOUDY    36  32  84 W10G17    29.98S WCI  29

CITY           SKY/WX    TMP DP  RH WIND       PRES   REMARKS
JACKSON        CLOUDY    36  31  82 W10G18    29.99F WCI  28
LAMBERTVILLE   LGT RAIN  41  36  81 W10G17    30.02R
LANSING        CLOUDY    36  31  82 W16G23    29.99S WCI  26
LAPEER         CLOUDY    38  32  78 W14G22    29.96R WCI  30
MASON          CLOUDY    35  30  81 W10G20    29.99F WCI  28
MONROE         DRIZZLE   43  36  75 W15G21    29.99R
MT. CLEMENS    LGT RAIN  42  36  80 W13       29.95R
PONTIAC        CLOUDY    38  31  76 W18       29.96R WCI  28
PORT HOPE        N/A     39  33  79 W12G28    29.87R WCI  32
PORT HURON     CLOUDY    41  36  81 W9G18     29.95R
TRI CITIES     CLOUDY    39  31  72 W17       29.96R WCI  30
TROY           LGT RAIN  41  34  74 W12G20    29.99R
SAGINAW HB     CLOUDY    37  34  87 W14G22    29.96R WCI  29
$$
MIZ043>046-050>051-056>058-064>065-071>073-077>080-280400-
SOUTHWEST LOWER MICHIGAN

CITY           SKY/WX    TMP DP  RH WIND       PRES   REMARKS
BATTLE CREEK   CLOUDY    36  30  79 W9G20     30.02F WCI  29
BENTON HARBOR  CLOUDY    35  29  78 W14G21    30.06F WCI  26
BIG RAPIDS     LGT SNOW  34  33  95 NW8       29.95R WCI  28
COLDWATER      CLOUDY    35  31  85 W14G22    30.02S WCI  26
FREMONT        CLOUDY    35  33  93 W10       29.99R WCI  27
HOLLAND        CLOUDY    38  29  70 W10       30.03S WCI  31
GRAND RAPIDS   CLOUDY    36  29  75 W10       30.01R WCI  28
IONIA          CLOUDY    37  31  79 W18       29.99S WCI  26
KALAMAZOO      CLOUDY    36  30  79 W14       30.04S WCI  27
LUDINGTON      CLOUDY    36  32  87 NW6       30.00R WCI  31
MARSHALL       CLOUDY    34  30  85 W13G21    30.01S WCI  25
MOUNT PLEASANT CLOUDY    36  32  84 CALM      29.96R
MUSKEGON       LGT RAIN  37  32  82 W12G21    30.01R WCI  29
SOUTH HAVEN    CLOUDY    37  30  76 NW12      30.05S WCI  29
$$
MIZ016>042-280400-
NORTHERN LOWER MICHIGAN

CITY           SKY/WX    TMP DP  RH WIND       PRES   REMARKS
ALPENA         FLURRIES  32  28  85 NW10G20   29.90R WCI  24
BEAVER ISLAND  MOCLDY    31  26  82 NW9       29.95S WCI  23
BELLAIRE       CLOUDY    32  29  88 N5        29.96R WCI  27
CADILLAC       CLOUDY    32  30  94 NW8       29.92F WCI  24
CHARLEVOIX     CLOUDY    32  27  81 NW12      29.97S WCI  23
FRANKFORT      MOCLDY    33  30  90 NW3       29.98R
GAYLORD        CLOUDY    29  23  78 NW8G20    29.91R WCI  21
GRAYLING       LGT SNOW  33  32  96 NW10      29.92S WCI  24
HARBOR SPRINGS CLOUDY    31  24  76 W9        29.93F WCI  23
HOUGHTON LAKE  CLOUDY    32  28  85 NW7       29.91S WCI  26
MANISTEE       CLOUDY    34  30  86 NW7       29.98F WCI  28
OSCODA         CLOUDY    36  32  86 NW9G18    29.89R WCI  29
PELLSTON       CLOUDY    31  24  75 NW15      29.93R WCI  20
ROGERS CITY    CLOUDY    32  29  91 W12G20    29.91R WCI  23
TRAVERSE CITY  CLOUDY    34  31  88 NW3       29.96R
$$
MIZ007>008-015-280400-
EASTERN UPPER MICHIGAN

CITY           SKY/WX    TMP DP  RH WIND       PRES   REMARKS
KINROSS        CLOUDY    28  27  93 W14G23    29.87R WCI  17
MACKINAC ISLAN CLOUDY    31  27  84 NW17G24   29.91R WCI  19
NEWBERRY       CLOUDY    27  25  93 W7        29.90S WCI  20
S. S. MARIE    CLOUDY    31  22  69 NW16G36   29.85F WCI  20
MUNISING         N/A     31  24  75 VRB5      29.94R WCI  26
$$
MIZ004>006-011>014-085-280400-
CENTRAL UPPER MICHIGAN

CITY           SKY/WX    TMP DP  RH WIND       PRES   REMARKS
MANISTIQUE     CLOUDY    29  28  97 W5        29.95R WCI  24
ESCANABA       CLOUDY    30  21  69 W10       29.96S WCI  21
MENOMINEE      CLOUDY    30  25  80 W9        30.00R WCI  22
SAWYER-GWINN   CLOUDY    27  21  80 NW8       29.93R WCI  18
$$
MIZ001>003-009>011-084-280400-
WESTERN UPPER MICHIGAN

CITY           SKY/WX    TMP DP  RH WIND       PRES   REMARKS
IRON MOUNTAIN    N/A     24  18  77 W10       29.95R WCI  14
HOUGHTON       PTCLDY    20  12  71 W12       29.92S WCI   8
COPPER HARBOR    N/A     26  19  74 VRB5G23   29.93R WCI  20
IRONWOOD       CLOUDY    18  12  79 SW6       29.95S WCI   9
$$

ABBREVIATIONS USED IN REMARKS
   TC - TEMPERATURE IN CELSIUS
  WCI - WIND CHILL INDEX
   HX - HEAT INDEX
  VSB - VISIBILITY




USA.gov is the U.S. government's official web portal to all federal, state and local government web resources and services.